Theta_e
307 308 307 307 306 306 306 306 306 307 307 308 310 311 311 311 308 311 312 312 313 313 314 314 316 316 314 319 319 319 320 320 321 322 324 328 333 334 334 333 335 343 352 358 355
307 307 307 307 307 307 307 306 306 306 306 307 307 309 310 311 312 312 311 310 310 311 313 315 319 317 315 317 318 319 320 321 323 323 323 325 330 331 334 333 336 346 351 352 354
307 307 307 307 307 307 306 306 307 306 306 306 306 307 308 310 313 315 313 312 312 310 312 315 318 318 315 316 318 318 320 321 322 323 324 324 326 328 332 334 334 345 353 352 355
306 306 306 306 306 306 305 307 307 307 306 305 305 306 307 309 314 317 314 315 314 314 316 315 319 320 316 317 318 318 319 321 321 322 321 323 325 326 329 332 334 336 351 352 355
306 306 306 306 306 306 305 307 307 307 307 306 306 306 307 310 311 312 317 318 317 314 314 317 319 321 319 317 318 318 319 319 320 321 321 323 324 326 327 329 332 337 348 351 354
305 305 305 305 306 306 305 305 306 306 307 307 307 306 307 310 307 308 308 311 311 313 315 319 318 319 318 317 319 320 319 320 319 320 321 322 322 323 325 325 328 337 346 349 353
305 305 305 305 306 306 306 306 307 307 307 308 308 308 308 309 307 310 311 311 311 312 315 318 317 320 319 317 317 319 320 320 319 320 321 321 321 322 323 324 325 335 342 344 350
305 305 305 306 306 306 306 306 306 307 308 309 309 308 310 308 307 307 307 310 310 313 314 315 317 321 318 317 317 317 319 321 320 320 320 320 320 321 322 325 330 333 340 343 345
305 305 305 305 306 306 306 306 306 308 308 308 309 309 311 308 308 307 307 308 308 311 312 313 316 322 318 317 317 316 319 320 320 320 319 320 320 321 321 322 329 332 338 341 344
305 305 305 305 306 306 306 307 309 307 307 307 307 309 309 308 308 308 310 309 309 311 312 314 316 323 319 317 317 317 317 320 321 320 319 319 320 321 322 323 328 332 336 339 341
305 305 305 305 305 306 307 311 312 311 309 311 311 310 308 308 308 309 310 311 310 311 314 315 319 321 320 318 317 317 318 320 320 320 319 320 320 320 322 323 327 331 333 333 335
304 304 305 305 305 306 308 311 310 308 310 310 309 309 308 308 308 309 310 312 312 311 311 316 320 318 318 318 317 317 318 318 319 319 319 320 320 321 321 322 324 328 331 332 332
304 304 305 305 306 309 312 310 307 306 309 310 309 309 308 308 309 311 310 312 311 311 311 316 316 317 318 318 317 318 319 319 319 318 318 320 320 320 321 321 322 325 329 329 332
304 305 306 307 308 312 310 309 305 306 312 311 310 311 310 309 309 308 309 312 312 313 310 312 315 316 319 319 318 319 318 318 318 318 318 320 320 321 321 322 322 322 324 327 330
304 304 306 308 312 312 310 308 304 307 323 309 311 311 311 310 312 312 308 310 310 312 310 311 315 316 321 319 318 318 317 318 318 318 319 318 320 320 320 322 324 323 323 326 329
304 304 308 312 311 311 309 305 305 314 324 314 312 312 312 311 310 313 312 309 310 310 314 310 316 319 319 319 317 318 317 317 317 318 319 320 319 321 321 321 325 325 325 326 325
303 305 310 311 312 311 305 305 315 324 315 318 315 313 313 316 314 312 310 310 311 315 317 311 315 319 317 317 316 317 318 319 319 319 321 322 321 323 323 321 321 322 322 322 322
305 307 312 312 312 309 305 311 323 319 318 315 314 314 316 315 315 313 315 311 310 311 314 313 319 322 319 318 316 318 319 321 322 322 321 322 323 322 324 323 321 322 322 322 322
309 313 314 312 313 311 310 322 321 315 313 314 315 318 319 316 316 315 316 312 310 312 318 311 317 319 320 318 317 317 319 320 321 321 322 323 322 323 323 322 322 323 323 323 323
309 314 313 313 314 313 313 317 317 311 310 310 318 317 318 317 319 316 314 313 311 311 315 312 317 318 320 317 316 318 320 321 322 325 324 324 323 322 322 325 327 328 329 329 329
312 316 312 312 314 315 318 318 315 314 315 309 317 317 318 318 318 317 315 313 314 310 312 318 319 322 319 315 316 316 318 320 321 322 325 325 323 324 326 326 329 331 331 337 336
312 314 312 312 315 314 317 314 313 315 314 310 308 313 318 320 317 314 316 316 313 312 316 320 322 325 321 316 315 316 318 320 323 324 324 324 328 324 329 332 336 337 339 335 335
313 312 313 312 317 316 314 315 314 315 315 314 313 314 317 320 320 317 315 312 313 313 320 319 322 326 322 317 315 316 318 319 321 324 325 329 334 331 338 340 337 336 334 335 335
311 312 312 313 313 314 316 316 316 315 315 314 315 315 318 320 320 320 318 314 314 317 319 317 324 324 325 320 318 317 317 319 322 325 323 326 330 333 340 337 335 335 337 336 336
310 311 311 314 315 315 315 315 316 319 315 314 314 319 319 317 319 322 320 317 317 320 319 317 327 321 320 320 318 317 316 318 323 322 322 327 329 338 339 335 335 334 333 332 331
310 310 309 310 314 314 315 317 317 318 315 315 317 320 320 322 325 322 321 321 322 321 321 327 325 320 321 320 317 317 316 319 320 319 325 325 333 339 335 333 335 332 332 333 331
306 307 308 312 314 316 317 316 317 317 315 313 316 318 320 320 320 323 323 323 324 325 328 329 327 327 328 320 318 318 317 319 318 317 323 328 337 336 334 335 334 333 332 331 329
Wind_Speed
19 19 19 19 19 19 18 18 18 17 18 18 17 17 19 18 21 23 23 20 10 14 17 19 18 19 22 20 24 23 17 23 30 27 22 20 17 18 14 14 7 5 6 17 13
20 20 20 20 19 19 19 19 19 18 18 16 17 17 18 19 23 30 32 28 26 22 16 18 16 18 18 20 22 21 21 30 23 22 22 19 21 19 16 13 10 10 9 11 14
21 21 21 21 21 20 20 19 19 18 17 16 15 16 15 16 23 13 1 14 20 21 22 22 21 18 24 20 26 28 25 23 24 22 22 19 16 14 19 19 15 17 15 11 14
22 22 22 22 22 22 22 22 20 19 18 17 16 14 13 12 8 11 12 13 9 9 19 23 20 21 25 29 27 25 28 26 21 17 11 15 12 21 16 16 12 6 19 12 12
23 23 23 24 24 25 25 24 23 21 20 18 15 14 12 17 18 19 8 7 7 8 17 21 25 23 26 25 26 31 23 25 26 15 13 14 17 17 15 18 9 6 8 12 11
25 26 27 27 27 26 27 27 25 24 22 20 16 13 15 21 19 17 23 24 18 13 19 22 24 24 20 27 28 21 25 20 27 17 17 22 20 17 18 14 9 10 12 13 12
28 29 30 29 27 27 28 28 27 27 23 21 18 15 15 22 14 10 12 16 19 14 17 15 27 22 28 26 22 25 24 25 21 22 18 18 21 24 18 14 15 16 14 11 12
30 32 32 29 28 29 29 30 29 25 24 22 18 16 12 15 20 29 26 18 11 12 11 8 15 20 24 17 24 21 19 23 25 24 23 21 24 23 21 18 17 19 15 11 11
32 33 33 32 29 29 31 30 30 21 19 14 12 14 13 5 20 20 23 25 24 17 12 9 9 15 18 23 20 20 25 25 28 25 20 23 17 23 20 20 19 18 17 14 12
33 34 35 34 30 29 29 26 17 9 2 6 5 5 15 11 6 10 10 17 18 20 15 9 5 13 18 19 25 29 32 25 26 24 26 22 19 17 21 21 20 19 18 16 15
35 37 36 35 32 26 21 20 1 7 14 13 9 12 2 10 4 12 7 9 17 18 21 16 12 25 33 31 25 23 24 24 24 21 24 24 21 19 22 19 20 19 18 18 16
38 39 37 34 28 20 11 6 7 8 12 18 20 20 19 10 10 2 5 11 15 23 23 15 19 25 24 27 26 26 24 27 21 18 21 22 22 17 14 18 20 20 19 18 17
42 40 37 29 21 9 8 7 8 7 7 11 7 13 15 18 14 11 12 6 15 21 25 22 19 25 25 27 27 27 24 26 22 17 17 21 20 27 19 18 22 22 19 18 18
43 41 30 19 9 13 6 8 5 5 4 10 7 5 11 13 18 22 20 12 9 16 25 25 23 26 21 27 26 27 18 21 22 18 15 25 14 23 22 20 22 24 23 21 20
44 33 18 8 11 10 8 6 3 4 3 4 7 4 3 15 6 2 26 20 15 12 16 23 16 22 23 25 27 21 18 21 21 19 20 20 17 24 20 20 24 23 23 22 19
45 21 15 4 1 4 8 1 3 3 2 6 5 4 8 15 7 7 15 22 15 7 18 20 17 17 23 23 24 22 25 17 15 16 17 24 19 17 26 27 23 21 19 18 18
40 8 9 9 10 5 3 1 2 3 3 5 5 6 9 6 8 5 13 20 18 8 16 20 22 17 20 23 26 22 23 16 16 15 16 18 19 7 22 24 26 24 23 20 18
22 1 5 12 10 4 3 2 4 5 3 15 10 12 10 5 9 13 10 17 23 19 14 16 14 18 20 22 23 27 25 16 28 19 15 21 13 9 11 15 19 21 20 20 18
16 4 4 16 8 2 3 4 7 4 5 7 14 2 5 4 5 7 18 18 21 19 7 18 17 20 18 26 28 29 24 23 16 16 15 18 8 14 16 12 12 14 13 15 16
16 6 11 12 8 4 2 6 4 4 4 3 4 6 6 2 9 10 13 14 20 16 21 13 14 21 19 28 28 23 25 12 10 19 15 15 15 14 16 16 15 14 11 13 12
7 4 10 18 9 7 5 6 10 15 10 3 5 5 8 9 6 12 20 11 20 14 12 7 8 19 21 18 31 16 16 12 7 17 11 14 13 20 17 17 13 13 14 17 14
9 5 12 20 7 6 9 16 7 15 14 3 3 6 5 11 6 4 15 15 23 15 16 4 3 18 26 25 26 20 23 16 8 9 11 12 9 17 14 12 15 17 17 13 14
9 4 7 12 6 8 15 13 16 16 13 0 3 7 9 6 3 8 9 12 22 15 7 4 7 15 16 18 19 24 23 11 2 2 17 15 12 11 19 18 15 15 16 17 19
7 7 5 5 4 13 16 16 19 14 8 8 5 9 9 5 1 2 4 7 10 11 11 3 6 19 15 22 20 24 23 16 8 7 12 14 21 18 20 17 16 17 21 22 22
6 6 8 7 10 13 17 19 21 14 6 9 5 13 4 1 2 4 7 14 10 9 11 12 16 22 23 26 25 24 25 17 13 11 10 24 19 20 19 18 17 17 20 23 23
7 5 6 12 14 16 15 20 20 21 8 14 10 21 11 6 8 9 16 8 6 11 12 8 12 20 21 26 26 23 24 19 14 5 20 23 19 22 19 19 16 19 21 19 20
12 11 3 12 14 13 14 19 19 20 5 10 16 8 10 11 14 8 9 4 5 1 9 5 5 3 16 28 22 19 26 19 13 1 20 19 22 21 19 20 17 19 17 17 18
Wind_Direction
346 341 339 334 333 331 327 327 323 319 318 313 310 311 310 297 298 283 259 248 269 255 255 267 257 240 223 235 222 221 232 234 228 229 239 220 178 213 228 229 155 95 23 95 143
341 338 334 333 331 327 324 321 319 317 314 313 311 307 310 311 292 278 265 256 258 251 259 245 237 217 216 219 214 215 225 231 239 235 235 236 187 204 213 212 170 164 101 138 157
338 337 334 331 327 324 320 313 311 309 307 307 307 307 301 306 292 282 167 247 218 231 241 248 255 223 221 219 215 216 229 228 238 243 240 230 200 204 213 212 205 180 154 166 166
337 333 330 327 324 320 315 309 307 304 302 303 301 300 303 279 270 97 68 103 141 214 227 230 238 234 218 218 217 215 225 246 228 246 239 232 220 216 219 216 206 134 136 166 173
335 332 329 325 322 316 313 306 303 299 296 293 293 293 292 238 247 306 182 259 267 263 238 228 224 223 222 219 217 220 224 220 247 238 221 232 230 215 203 232 119 156 140 173 179
336 332 329 325 321 317 313 308 307 302 294 285 280 280 257 259 263 259 259 256 253 264 262 236 229 225 234 224 221 217 224 234 222 238 205 224 227 224 223 216 175 187 194 181 174
335 332 330 325 319 316 312 309 305 299 286 276 266 258 265 247 258 247 252 246 244 250 269 247 223 227 229 223 225 226 218 228 220 214 207 213 227 211 215 217 189 204 202 186 171
333 331 330 324 319 315 311 308 301 294 284 269 254 252 252 270 256 252 254 255 250 205 255 302 281 276 234 236 223 218 212 214 215 208 214 204 218 212 212 197 204 205 191 176 175
333 331 329 323 320 316 313 306 300 298 279 258 244 227 261 259 231 249 245 241 228 212 230 288 287 243 224 214 218 209 214 218 203 204 208 209 226 201 198 214 204 197 193 179 166
333 330 329 325 320 318 312 307 297 277 163 133 236 182 239 258 257 212 229 225 226 221 208 232 229 217 212 208 204 200 212 204 214 188 209 194 227 227 179 207 205 194 200 191 173
332 331 329 324 320 317 317 315 168 205 217 255 215 233 282 201 215 210 192 220 208 218 208 201 209 208 202 209 215 203 204 218 206 188 197 214 207 214 180 204 201 197 195 198 199
333 332 327 324 318 311 288 285 321 320 286 276 259 243 238 282 222 223 214 195 207 207 204 185 222 222 215 212 223 227 189 216 188 186 191 205 204 202 203 204 210 207 197 201 196
336 335 332 320 317 290 271 352 349 312 271 299 207 227 224 223 240 183 207 211 217 211 205 206 213 226 220 204 209 226 205 196 199 160 188 200 213 214 180 202 213 212 203 204 201
339 337 333 333 296 334 50 351 339 307 279 143 181 187 196 214 234 232 195 201 203 235 211 211 211 212 227 210 199 211 208 197 200 166 192 201 204 207 202 197 209 208 209 206 205
340 341 340 3 332 11 346 346 318 248 259 139 119 104 200 197 163 310 212 220 243 241 219 207 216 211 204 218 197 209 186 212 191 183 193 191 231 192 201 197 204 206 205 206 200
339 338 346 297 227 3 348 79 279 235 17 310 138 216 229 230 265 301 221 212 231 253 268 215 182 232 201 210 188 204 189 191 187 186 221 176 220 215 191 199 192 199 204 210 217
341 334 351 334 343 338 77 335 238 301 349 354 312 272 265 215 218 232 195 195 214 170 235 205 183 234 225 191 194 202 190 171 186 196 212 177 200 122 177 194 193 196 203 212 216
345 199 297 351 19 72 106 266 281 6 278 322 318 296 256 214 188 187 236 200 221 202 221 163 207 199 196 206 187 191 190 173 180 185 189 183 196 196 142 178 192 190 195 200 207
342 227 318 2 3 7 335 306 354 325 316 302 302 282 274 160 184 173 210 211 207 218 215 173 205 159 229 204 188 185 197 194 189 188 188 156 171 130 141 150 157 156 170 181 192
330 272 45 0 353 254 306 333 326 223 261 257 285 315 304 307 165 185 187 226 220 211 197 199 164 168 221 203 196 197 202 206 231 185 160 169 175 150 163 159 161 162 168 190 193
277 277 26 347 298 334 339 314 317 323 332 212 307 293 309 325 201 191 189 180 217 203 193 311 169 180 211 189 186 189 221 233 236 202 173 170 172 142 169 173 144 143 128 91 100
307 356 13 350 19 354 335 337 300 327 336 172 280 274 281 317 338 334 162 210 203 197 189 49 202 162 196 187 184 190 200 212 204 170 168 147 97 150 125 119 126 116 102 114 112
334 317 63 21 14 345 330 324 343 342 335 121 262 247 292 289 7 10 58 124 184 195 131 172 230 148 205 192 190 180 198 199 245 279 165 143 135 118 98 93 105 123 130 139 133
328 358 3 324 34 339 334 341 343 348 324 334 292 299 307 292 315 83 138 180 157 93 97 46 268 191 180 178 187 184 182 201 217 187 177 131 138 147 112 125 136 149 152 134 132
20 19 20 322 336 327 356 348 343 358 345 334 309 328 349 47 239 187 175 131 107 130 153 192 214 192 182 179 192 179 177 193 198 192 178 135 150 130 131 144 147 145 133 135 133
359 0 336 290 283 360 358 346 348 355 346 326 325 341 20 20 357 156 129 145 164 224 252 215 166 178 174 179 181 179 174 191 193 149 125 148 126 110 133 140 145 147 141 132 131
1 0 330 283 351 5 351 343 5 359 320 312 331 330 358 352 328 23 66 58 2 28 222 130 130 223 202 163 170 178 177 187 147 107 152 138 123 127 143 145 155 150 138 129 127